Regional Weather Roundup
Issued by NWS

Home | Current Version | Previous Version | Text Only | Print | Product List | Glossary On
Versions: 1 2 3 4 5 6 7 8 9 10 11 12 13 14 15 16 17 18 19 20 21 22 23 24 25 26 27 28
000
ASUS45 KBOU 062310
RWRCO

WEATHER ROUNDUP FOR COLORADO
NATIONAL WEATHER SERVICE DENVER/BOULDER CO
500 PM MDT THU MAY 06 2021

NOTE: "FAIR" INDICATES FEW OR NO CLOUDS BELOW 12000 FEET WITH NO
SIGNIFICANT WEATHER AND/OR OBSTRUCTIONS TO VISIBILITY.

COZ001>005-013-030-031-070000-
...NORTHWEST COLORADO...

CITY           SKY/WX    TMP DP  RH WIND       PRES   REMARKS
CRAIG          FAIR      76  11   8 W17G25    30.18F
HAYDEN         FAIR      73  12   9 W21       30.21F
MEEKER         FAIR      76  12   8 NW12      30.18F
RANGELY        FAIR      81  15   8 W13G18    30.12F
RABBIT EARS PA FAIR      54  19  26 W7        30.47F
STEAMBOAT SPGS FAIR      71  14  11 SW10      30.21F
WALDEN         FAIR      65  10  11 SW14G20   30.31F
$$

COZ006>008-011-070000-
...WEST CENTRAL VALLEYS...

CITY           SKY/WX    TMP DP  RH WIND       PRES   REMARKS
GRAND JUNCTION FAIR      82  14   8 W8G20     30.10F
MONTROSE       FAIR      79  15   9 N9        30.17F
EAGLE          FAIR      74  14  10 W20       30.22F
RIFLE          FAIR      80  15   8 W14       30.14F
DELTA          FAIR      85  14   7 NW12      30.13F
NUCLA          FAIR      80  12   7 SE5G13    30.19F
$$

COZ017>023-064>068-070000-
...SOUTHWEST COLORADO...

CITY           SKY/WX    TMP DP  RH WIND       PRES   REMARKS
DURANGO        FAIR      77   9   7 MISG      30.21F
CORTEZ         FAIR      82  16   8 W8G24     30.18F
PAGOSA SPRINGS FAIR      74  15  10 SW16      30.29F
TELLURIDE      FAIR      64  12  13 CALM      30.40S
WOLF CREEK PAS FAIR      46  12  25 W8G16     30.62S
$$

COZ009-010-012-014-032>034-037-058>063-070000-
...CENTRAL COLORADO...

CITY           SKY/WX    TMP DP  RH WIND       PRES   REMARKS
ASPEN          FAIR      69  15  12 N10G18    30.26F
BUENA VISTA    FAIR      71 -18   3 W6G16     30.26F
COPPER MTN     FAIR      54   3  13 W6G22     30.55S
BERTHOUD PASS  FAIR      41  28  60 NW21G36   30.55S
DAKOTA HILL    FAIR      52  16  24 NW10G17   30.47S
COTTONWOOD PAS FAIR      63  -2   7 N7        30.39F
GUNNISON       FAIR      71   7   8 W14G21    30.27F
GRANBY         FAIR      68  21  16 W13       30.29F
KREMMLING      FAIR      73  19  13 W15G25    30.25F
LEADVILLE      FAIR      60  12  15 W8        30.40F
MONARCH PASS   FAIR     N/A N/A N/A W30G38    30.64
SALIDA         FAIR      75   5   7 W17       30.32F
SUNLIGHT         N/A     52  10  19 SW9G22    30.51F
WILKERSON PASS FAIR      54   3  13 W6        30.52S
$$

COZ069>075-070000-
...SAN LUIS VALLEY/SANGRE DE CRISTO MOUNTAINS...

CITY           SKY/WX    TMP DP  RH WIND       PRES   REMARKS
ALAMOSA        FAIR      75   5   6 S13G22    30.25F
DEL NORTE      FAIR      73  17  12 E13       30.26F
LA VETA PASS   FAIR      57  16  19 W6        30.45F
SAGUACHE       FAIR      70  16  12 SE8       30.28F
$$

COZ035-036-038>040-070000-
...NORTHERN COLORADO FRONT RANGE...

CITY           SKY/WX    TMP DP  RH WIND       PRES   REMARKS
DENVER INTL AP FAIR      73  34  23 E9G18     30.17F
AURORA         MOSUNNY   72  36  27 E7        30.17F
WATKINS        NOT AVBL
ERIE           FAIR      69  40  34 NE6       30.17F
BOULDER        FAIR      68  37  32 N5        30.18F
CENTENNIAL     FAIR      71  34  25 CALM      30.17F
BROOMFIELD     MOSUNNY   68  37  32 N3        30.19F
FORT COLLINS   FAIR      70  40  33 VRB7      30.18F
LONGMONT       FAIR      70  38  30 CALM      30.19F
$$

COZ041-046-047-076>085-087-088-070000-
...PIKES PEAK/PALMER DIVIDE AND SOUTHERN FOOTHILLS...

CITY           SKY/WX    TMP DP  RH WIND       PRES   REMARKS
COLO. SPRINGS  FAIR      70  33  25 SE14G25   30.22F
A. F. ACADEMY  FAIR      68  31  25 S16       30.21F
SCHRIEVER AFB  NOT AVBL
CHEYENNE MTN   FAIR      64  31  28 SE16G26   30.19F
ELLICOTT       FAIR      69  27  21 SE13      30.23F
FALCON         FAIR      67  28  22 SE15G23   30.27F
FORT CARSON    FAIR      72  30  21 SE8       30.17F
LIMON          FAIR      69  31  24 S10       30.20F
MONUMENT HILL  FAIR      61  36  39 S10G17    30.27F
CANON CITY     FAIR      77  36  22 E10       30.15F
WALSENBURG     NOT AVBL
TRINIDAD       FAIR      77  35  21 SE9G20    30.17F
$$

COZ042>045-048>051-090-091-070000-
...NORTHEAST COLORADO...

CITY           SKY/WX    TMP DP  RH WIND       PRES   REMARKS
GREELEY        FAIR      72  34  24 S6        30.17F
AKRON          FAIR      69  32  25 VRB5      30.17F
BURLINGTON     FAIR      72  35  25 S9G18     30.19F
WRAY           FAIR      72  34  25 S5        30.17F
YUMA           FAIR      70 -24   2 SE6G16    30.16F
STERLING       FAIR      70  32  24 NW3       30.15F
HOLYOKE        FAIR      73  37  27 SE10      30.18F
FORT MORGAN    FAIR      71  31  22 SE3       30.18F
$$

COZ086-089-092>099-070000-
...SOUTHEAST COLORADO...

CITY           SKY/WX    TMP DP  RH WIND       PRES   REMARKS
PUEBLO         FAIR      79  31  17 S10G22    30.11F
LA JUNTA       FAIR      81  27  14 SE6G17    30.12F
LAMAR          SUNNY     81  30  16 S3        30.10
SPRINGFIELD      N/A     76  36  23 S15G29    30.18F
$$



USA.gov is the U.S. government's official web portal to all federal, state and local government web resources and services.